[[{"header":{"parameterUnit":"m.s-1","parameterCategory":1,"la1":30.2991,"la2":30.254,"lo1":-89.0895,"lo2":-89.0444,"dy":0.0017,"dx":0.0017,"nx":28,"ny":28,"refTime":"2024-08-28T09:00:00:Z","depth":0,"parameterNumber":2,"parameterNumberName":"U-component_of_WINDS"},"data":[0,0,0,0,0,0,0,0,0,0,0,0,0,0,0,0,0,0,0,0,0,0,0,0,0,0,0,0,0,0,0,0,0,0,0,0,0,0,0,0,0,0,0,0,0,0,0,0,0,0,0,0,0,0,0,0,0,0,-2.024,-2.0241,0,-2.0318,-2.0319,-2.032,-2.0324,-2.0323,-2.0322,-2.0321,-2.0401,-2.0403,-2.0406,0,0,0,0,0,0,0,0,0,0,0,0,0,-2.0094,-2.0097,-2.024,-2.0241,-2.0242,-2.0318,-2.0319,-2.032,-2.0324,-2.0323,-2.0322,-2.0321,-2.04,-2.0403,-2.0407,0,0,0,0,0,0,0,0,0,0,0,0,0,-2.0163,-2.0098,-2.024,-2.0253,-2.0255,-2.0318,-2.0319,-2.032,-2.0324,-2.0323,-2.0322,-2.032,-2.0398,-2.0403,-2.0407,-2.0462,0,0,-2.0421,-2.0423,0,0,0,0,0,0,0,0,-2.0159,-2.0169,-2.025,-2.0252,-2.0255,-2.031,-2.0297,-2.0368,-2.0325,-2.0298,-2.0321,-2.032,-2.0371,-2.0378,-2.0396,-2.0465,-2.0469,-2.0421,-2.0424,-2.0426,-2.0427,0,0,0,0,0,0,0,-2.0155,-2.0165,-2.0271,-2.0251,-2.0254,-2.0255,-2.0263,-2.031,-2.0341,-2.03,-2.0301,-2.031,-2.0372,-2.0391,-2.0397,-2.047,-2.0421,-2.0425,-2.0428,-2.0429,-2.0589,-2.059,0,0,0,0,0,0,-2.0147,-2.0161,-2.0268,-2.0273,-2.0203,-2.0259,-2.0268,-2.0293,-2.0341,-2.0347,-2.0311,-2.031,-2.0384,-2.0392,-2.04,-2.0467,-2.0426,-2.043,-2.0432,-2.0587,-2.0589,-2.0591,0,0,0,0,0,0,-2.0144,-2.0157,-2.0265,-2.0217,-2.0231,-2.0263,-2.0291,-2.0296,-2.0315,-2.0349,-2.0355,-2.0325,-2.0384,-2.0394,-2.0446,-2.047,-2.0432,-2.0436,-2.0585,-2.0588,-2.059,-2.0601,0,0,0,0,0,0,-2.014,-2.0156,-2.0177,-2.0218,-2.0234,-2.031,-2.0293,-2.0298,-2.0322,-2.0322,-2.0363,-2.0369,-2.0383,-2.044,-2.0451,-2.0475,-2.0439,-2.0583,-2.0586,-2.0589,-2.0598,-2.0603,-2.0607,0,0,0,0,0,-2.0135,-2.0176,-2.0178,-2.019,-2.0261,-2.0311,-2.032,-2.0336,-2.0324,-2.0345,-2.0368,-2.0367,-2.0466,-2.0445,-2.0458,-2.0484,-2.0582,-2.0585,-2.0589,-2.0596,-2.0602,-2.0607,0,0,0,0,0,0,-2.0136,-2.0182,-2.0184,-2.024,-2.0272,-2.0312,-2.0339,-2.0342,-2.0378,-2.0375,-2.0394,-2.0403,-2.0455,-2.0475,-2.0451,-2.0539,-2.0522,-2.0529,-2.0524,-2.053,-2.0534,-2.0527,-2.0443,0,0,0,0,0,-2.0144,-2.0181,-2.0219,-2.0265,-2.0281,-2.0307,-2.033,-2.034,-2.0373,-2.0386,-2.0412,-2.0445,-2.0483,-2.0508,-2.0545,-2.0602,-2.0611,-2.0626,-2.063,-2.0634,-2.0639,-2.067,-2.0677,-2.0602,-2.0602,-2.0602,0,0,-2.0158,-2.0188,-2.021,-2.0266,-2.0292,-2.033,-2.0318,-2.0359,-2.0388,-2.0393,-2.0443,-2.0464,-2.0501,-2.0556,-2.0582,-2.0574,-2.0662,-2.0638,-2.0641,-2.0644,-2.0674,-2.0681,-2.0688,-2.0605,-2.0604,-2.0604,0,0,-2.0204,-2.0231,-2.0272,-2.0298,-2.0337,-2.0355,-2.0365,-2.0405,-2.0418,-2.047,-2.0475,-2.0509,-2.0574,-2.0601,-2.0623,-2.068,-2.0681,-2.0692,-2.0714,-2.0745,-2.0751,-2.0756,-2.0776,-2.0783,-2.0697,-2.0697,-2.0697,0,-2.0217,-2.0275,-2.0292,-2.0333,-2.0358,-2.0365,-2.0406,-2.0431,-2.048,-2.0497,-2.0488,-2.0571,-2.0597,-2.0657,-2.0672,-2.069,-2.0701,-2.0686,-2.0749,-2.0754,-2.0759,-2.0778,-2.0786,-2.0698,-2.0698,-2.0698,-2.0698,0,-2.0289,-2.0329,-2.0357,-2.0405,-2.0433,-2.0474,-2.0497,-2.0524,-2.0531,-2.055,-2.0602,-2.0634,-2.0677,-2.0693,-2.0701,-2.0756,-2.075,-2.0745,-2.0728,-2.0767,-2.0785,-2.0792,-2.0699,-2.0699,-2.0699,-2.0698,0,0,-2.0337,-2.0394,-2.0404,-2.0426,-2.047,-2.0501,-2.0543,-2.0586,-2.0608,-2.0642,-2.0677,-2.0733,-2.0729,-2.0754,-2.0765,-2.0792,-2.0835,-2.0784,-2.0785,-2.0791,-2.0896,-2.0898,-2.0907,-2.0837,-2.0838,-2.0839,-2.0893,0,-2.0387,-2.046,-2.0478,-2.0541,-2.0578,-2.0586,-2.0623,-2.0654,-2.0673,-2.0707,-2.0728,-2.0767,-2.0759,-2.0774,-2.0801,-2.0824,-2.0856,-2.082,-2.0869,-2.087,-2.0857,-2.0916,-2.0919,-2.0968,-2.09,-2.0901,-2.0902,0,-2.0454,-2.049,-2.0557,-2.0597,-2.0613,-2.0645,-2.0686,-2.0719,-2.0755,-2.0767,-2.0795,-2.0804,-2.0848,-2.083,-2.0891,-2.0866,-2.0887,-2.0902,-2.0904,-2.0908,-2.0887,-2.092,-2.0984,-2.099,-2.0914,-2.0913,-2.0912,0,-2.0481,-2.0547,-2.0595,-2.0614,-2.0661,-2.0684,-2.0705,-2.0739,-2.0764,-2.08,-2.0816,-2.0857,-2.0879,-2.091,-2.093,-2.0915,-2.0988,-2.0973,-2.0999,-2.0998,-2.1013,-2.1011,-2.1079,-2.1029,-2.1028,-2.1028,-2.1028,0,-2.0534,-2.0575,-2.0608,-2.0637,-2.0683,-2.0703,-2.0748,-2.0769,-2.08,-2.0834,-2.0844,-2.0875,-2.09,-2.0935,-2.0951,-2.0998,-2.1008,-2.1019,-2.1022,-2.1017,-2.1016,-2.103,-2.1027,-2.103,-2.103,-2.1029,-2.1029,0,-2.0571,-2.0595,-2.0648,-2.069,-2.0701,-2.0733,-2.0768,-2.0797,-2.0817,-2.086,-2.0871,-2.0902,-2.0944,-2.0967,-2.1019,-2.103,-2.1083,-2.1085,-2.107,-2.1071,-2.1096,-2.1093,-2.1174,-2.1185,-2.1129,-2.1129,-2.113,0,-2.0603,-2.0634,-2.0679,-2.0703,-2.0724,-2.0762,-2.0787,-2.0809,-2.0835,-2.0878,-2.0902,-2.0945,-2.098,-2.1047,-2.1073,-2.1114,-2.1117,-2.1142,-2.1123,-2.1116,-2.1116,-2.1113,-2.1116,-2.1145,-2.1146,-2.1146,-2.1146,0,-2.0656,-2.0667,-2.0703,-2.0744,-2.0774,-2.0807,-2.0839,-2.0858,-2.0885,-2.0914,-2.0957,-2.0984,-2.1038,-2.108,-2.1123,-2.1145,-2.115,-2.1153,-2.1161,-2.1155,-2.1145,-2.115,-2.1078,-2.115,-2.115,-2.115,-2.1149,-2.1149,-2.0691,-2.0719,-2.0755,-2.0795,-2.0822,-2.0853,-2.0882,-2.0905,-2.0942,-2.0987,-2.0998,-2.1043,-2.1079,-2.1137,-2.116,-2.1196,-2.1191,-2.1203,-2.1205,-2.1208,-2.1208,-2.114,-2.1204,-2.1204,-2.1204,-2.1204,-2.1204,0,-2.0744,-2.0768,-2.0805,-2.085,-2.0882,-2.0885,-2.0921,-2.0947,-2.0987,-2.102,-2.1054,-2.1104,-2.1145,-2.1176,-2.1218,-2.124,-2.1244,-2.1251,-2.1248,-2.1253,-2.1211,-2.1199,-2.1247,-2.1247,-2.1247,-2.1247,-2.1247,-2.1247,-2.0775,-2.0823,-2.0837,-2.0899,-2.0922,-2.0966,-2.0987,-2.1015,-2.1041,-2.1096,-2.113,-2.115,-2.1182,-2.1227,-2.1265,-2.1273,-2.1287,-2.1294,-2.1302,-2.1261,-2.1256,-2.1252,-2.1241,-2.1297,-2.1297,-2.1341,-2.1342,-2.1342]},{"header":{"parameterUnit":"m.s-1","parameterCategory":1,"la1":30.2991,"la2":30.254,"lo1":-89.0895,"lo2":-89.0444,"dy":0.0017,"dx":0.0017,"nx":28,"ny":28,"refTime":"2024-08-28T09:00:00:Z","depth":0,"parameterNumber":3,"parameterNumberName":"V-component_of_WINDS"},"data":[0,0,0,0,0,0,0,0,0,0,0,0,0,0,0,0,0,0,0,0,0,0,0,0,0,0,0,0,0,0,0,0,0,0,0,0,0,0,0,0,0,0,0,0,0,0,0,0,0,0,0,0,0,0,0,0,0,0,0.815,0.8149,0,0.8113,0.8113,0.8112,0.8085,0.8084,0.8084,0.8084,0.8043,0.8043,0.8042,0,0,0,0,0,0,0,0,0,0,0,0,0,0.8193,0.8192,0.815,0.8149,0.8149,0.8113,0.8113,0.8112,0.8085,0.8084,0.8084,0.8084,0.8044,0.8043,0.8042,0,0,0,0,0,0,0,0,0,0,0,0,0,0.8167,0.8192,0.815,0.8131,0.8129,0.8113,0.8113,0.8112,0.8085,0.8084,0.8084,0.8084,0.8044,0.8043,0.8042,0.8041,0,0,0.8038,0.8037,0,0,0,0,0,0,0,0,0.8168,0.8165,0.8134,0.8132,0.813,0.8103,0.8113,0.8088,0.8085,0.8101,0.8084,0.8083,0.8063,0.8061,0.8054,0.804,0.8038,0.8038,0.8037,0.8036,0.8036,0,0,0,0,0,0,0,0.817,0.8167,0.8135,0.8134,0.8131,0.8123,0.8119,0.8108,0.8085,0.81,0.8098,0.8094,0.8062,0.8056,0.8053,0.8037,0.8038,0.8037,0.8036,0.8035,0.8019,0.8019,0,0,0,0,0,0,0.8175,0.8168,0.8136,0.8134,0.8149,0.8123,0.8118,0.8112,0.8085,0.808,0.8094,0.8093,0.8058,0.8055,0.8052,0.8049,0.8036,0.8035,0.8034,0.8019,0.8019,0.802,0,0,0,0,0,0,0.8176,0.8173,0.8138,0.8151,0.8146,0.8122,0.8116,0.8111,0.8105,0.8081,0.8076,0.8092,0.8058,0.8054,0.8044,0.8047,0.8035,0.8034,0.8018,0.8019,0.8019,0.8044,0,0,0,0,0,0,0.8178,0.8173,0.8174,0.8151,0.8145,0.8132,0.8116,0.8111,0.8103,0.8101,0.8078,0.8073,0.8057,0.8046,0.8043,0.8045,0.8033,0.8018,0.8019,0.8019,0.8043,0.8045,0.8047,0,0,0,0,0,0.8179,0.8181,0.8174,0.817,0.8145,0.8132,0.8129,0.8111,0.8104,0.8103,0.8088,0.8074,0.8048,0.8046,0.8042,0.8043,0.8018,0.8018,0.8019,0.8042,0.8045,0.8047,0,0,0,0,0,0,0.8204,0.8178,0.8169,0.8164,0.8151,0.8127,0.8126,0.8115,0.8102,0.81,0.8078,0.8072,0.8065,0.8053,0.8052,0.8041,0.8031,0.8031,0.8049,0.8052,0.8054,0.8057,0.8031,0,0,0,0,0,0.8209,0.8202,0.8179,0.8177,0.8171,0.815,0.8143,0.8131,0.8115,0.8109,0.8093,0.8078,0.8066,0.8058,0.8046,0.8041,0.8035,0.804,0.8043,0.8045,0.8045,0.804,0.8042,0.8022,0.8022,0.8022,0,0,0.8219,0.8204,0.8201,0.8181,0.8169,0.8161,0.8145,0.8137,0.813,0.8108,0.8098,0.8085,0.8067,0.8059,0.8055,0.8049,0.8049,0.8046,0.8047,0.8046,0.8041,0.8043,0.8044,0.8022,0.8022,0.8022,0,0,0.8233,0.8222,0.8218,0.8207,0.8189,0.8175,0.8174,0.8153,0.8144,0.8134,0.8117,0.8108,0.8088,0.8075,0.8066,0.8075,0.8062,0.8072,0.8083,0.8079,0.8081,0.8082,0.8084,0.8085,0.8072,0.8072,0.8072,0,0.8247,0.8235,0.8218,0.8211,0.8202,0.8182,0.8178,0.8167,0.8146,0.814,0.8135,0.8109,0.8095,0.8084,0.8086,0.808,0.8077,0.8074,0.8082,0.8083,0.8084,0.8086,0.8087,0.8073,0.8073,0.8073,0.8073,0,0.8253,0.8245,0.8244,0.8225,0.8217,0.8211,0.8192,0.8185,0.8173,0.816,0.815,0.8132,0.8116,0.8113,0.8101,0.81,0.8096,0.8087,0.8075,0.8088,0.8089,0.809,0.8075,0.8075,0.8074,0.8074,0,0,0.8281,0.8253,0.8253,0.8243,0.8223,0.8215,0.8208,0.8193,0.8188,0.8174,0.8167,0.8151,0.8142,0.8131,0.8118,0.8114,0.8121,0.8105,0.8104,0.8108,0.8118,0.8125,0.8126,0.8113,0.8113,0.8113,0.8119,0,0.8291,0.8278,0.8262,0.8255,0.8246,0.8227,0.8221,0.8207,0.8195,0.8185,0.817,0.8159,0.8148,0.8142,0.8138,0.8122,0.8123,0.8121,0.8105,0.8104,0.8109,0.8127,0.8134,0.814,0.8119,0.812,0.812,0,0.83,0.8288,0.828,0.826,0.8256,0.8251,0.8235,0.8226,0.821,0.8201,0.8189,0.8175,0.8166,0.8157,0.8143,0.8142,0.8134,0.8125,0.8125,0.8122,0.8112,0.8123,0.8142,0.8143,0.812,0.812,0.812,0,0.832,0.8302,0.8295,0.8287,0.8264,0.826,0.825,0.8233,0.8225,0.8211,0.8206,0.8191,0.8182,0.8171,0.8152,0.8148,0.814,0.8129,0.8131,0.8131,0.8129,0.8129,0.8146,0.8126,0.8126,0.8126,0.8126,0,0.8332,0.8328,0.8303,0.8299,0.8293,0.8274,0.8268,0.8256,0.8241,0.8233,0.8216,0.8208,0.8185,0.8175,0.816,0.815,0.8147,0.8138,0.8134,0.8139,0.814,0.8133,0.8132,0.8126,0.8126,0.8126,0.8126,0,0.8353,0.8336,0.8327,0.8306,0.83,0.8297,0.8278,0.8272,0.8258,0.8248,0.8245,0.8223,0.821,0.8191,0.8171,0.8161,0.8153,0.8147,0.8159,0.8157,0.8159,0.8158,0.8171,0.8171,0.8152,0.8152,0.8152,0,0.8361,0.8357,0.8336,0.8329,0.832,0.831,0.8302,0.8283,0.8275,0.8256,0.8252,0.8238,0.8225,0.8205,0.8186,0.8171,0.8164,0.817,0.8162,0.8167,0.8163,0.8163,0.8162,0.8171,0.8171,0.8172,0.8172,0,0.8377,0.8369,0.8359,0.8345,0.8336,0.8324,0.8311,0.8307,0.8285,0.8277,0.8264,0.8254,0.8235,0.822,0.8202,0.819,0.8177,0.8175,0.8174,0.8179,0.8185,0.8181,0.8163,0.8174,0.8174,0.8174,0.8174,0.8174,0.8391,0.8386,0.8371,0.8359,0.8348,0.8336,0.833,0.8316,0.8305,0.8288,0.8278,0.8265,0.8247,0.8222,0.8211,0.82,0.8194,0.8194,0.8193,0.8193,0.8195,0.8188,0.8197,0.8197,0.8197,0.8196,0.8196,0,0.8405,0.8394,0.8384,0.8367,0.8358,0.8348,0.8333,0.8326,0.8315,0.83,0.8288,0.8273,0.8258,0.824,0.8224,0.8218,0.8212,0.8214,0.8214,0.8211,0.8201,0.8203,0.822,0.822,0.822,0.822,0.822,0.822,0.8411,0.8403,0.8393,0.8379,0.8368,0.8356,0.8348,0.8337,0.8325,0.8309,0.8297,0.8286,0.8269,0.8252,0.8238,0.8232,0.8227,0.8231,0.8224,0.8214,0.8212,0.821,0.8212,0.8231,0.8231,0.8235,0.8235,0.8235]}]]